Wind_Speed
14 12 13 13 13 15 17 19 21 22 22 21 19 17 16 17 14 11 10 6 4 5 5 4 5 8 10 13 13 13 13 13 14 15 16 16 19 21 21 19 20 21 20 19 21 20 17 14 9 4 1 2 4 7 10 12 12 11 12 13 15 16 17 18 19 18 18 16 14 13 12 12 12 12 13 13 13 13 13 14 14 16 17 19 22 24 26
16 14 14 15 15 14 13 14 16 20 22 22 22 20 17 17 15 14 13 10 7 8 8 7 7 8 11 14 14 14 15 15 15 15 16 17 19 21 20 17 18 20 20 19 19 18 15 13 11 8 6 6 8 11 13 14 14 12 12 13 15 16 18 19 19 19 17 15 14 12 12 12 12 12 13 13 14 14 14 15 15 17 19 22 24 26 28
18 17 16 16 17 16 14 13 13 15 18 20 20 18 16 15 15 15 16 14 10 9 9 9 10 12 14 14 14 15 16 16 16 16 16 16 15 17 20 20 19 20 21 19 17 15 13 10 10 11 12 14 15 16 17 18 16 13 12 13 15 16 18 19 20 19 18 16 14 12 12 12 12 12 13 15 16 16 16 17 18 20 22 24 26 27 28
20 20 18 17 17 17 17 16 14 13 16 17 18 18 17 15 14 13 13 13 12 12 11 11 11 12 12 12 14 16 17 16 16 16 15 15 14 15 19 21 21 21 22 20 17 14 12 10 11 14 17 18 19 18 19 20 18 13 12 13 14 16 18 19 20 20 18 17 15 14 14 13 13 13 14 17 18 19 19 20 21 23 24 26 27 28 29
21 21 20 20 19 19 19 19 17 14 15 15 15 17 18 17 16 13 10 10 13 14 13 12 12 11 10 11 12 14 15 15 15 14 15 16 16 17 20 23 22 22 23 22 17 14 13 14 17 19 19 18 17 17 17 19 18 14 11 12 14 16 18 19 20 20 20 19 18 17 17 16 15 14 15 18 21 22 22 23 24 24 26 27 28 29 29
18 19 19 19 20 20 21 22 20 17 15 14 14 16 16 16 17 14 10 10 13 14 14 14 13 12 12 13 13 14 15 15 15 15 16 18 19 20 22 24 24 24 24 23 18 13 13 14 15 16 15 14 14 14 15 16 16 13 12 12 14 15 17 19 20 20 20 20 20 19 19 18 17 17 17 19 21 23 24 25 25 26 27 28 29 29 28
15 16 16 16 17 19 21 22 21 20 18 16 16 16 16 15 15 13 11 11 12 13 13 13 13 13 14 16 17 17 17 17 16 17 18 20 21 22 23 25 25 24 23 22 17 12 12 12 12 11 11 11 11 12 13 14 14 13 12 12 13 15 16 18 19 19 19 19 20 19 19 20 19 20 20 21 22 24 25 25 26 27 28 29 29 29 28
14 15 15 14 16 18 19 20 21 21 21 20 19 18 17 15 14 13 13 12 12 12 13 14 15 17 18 19 19 18 18 17 18 19 20 21 22 24 25 26 25 21 20 19 15 11 11 11 10 9 9 10 10 10 12 13 13 13 12 12 13 15 16 17 18 18 18 19 20 20 20 20 20 21 22 23 24 24 25 25 26 28 29 29 29 28 27
14 15 15 15 16 17 17 18 20 21 21 22 20 18 16 14 14 15 16 15 15 15 15 16 17 19 21 21 20 18 18 18 19 21 21 22 24 26 26 26 23 19 17 16 13 11 11 11 10 9 10 10 10 10 11 12 13 13 13 13 14 15 16 17 18 19 19 20 21 21 21 21 20 21 23 24 24 24 25 25 27 28 29 29 28 27 27
14 14 14 14 15 15 15 16 17 17 17 17 16 15 14 13 13 14 16 17 18 18 18 19 19 20 21 21 19 19 19 21 22 23 23 25 27 27 26 24 22 18 15 13 12 12 12 12 12 12 12 11 10 10 11 12 13 13 14 15 15 15 16 18 19 20 21 22 22 22 22 21 20 20 22 24 24 24 25 26 27 28 28 28 27 26 26
15 14 13 13 14 14 15 15 15 14 13 13 13 13 13 13 13 13 14 16 17 18 19 20 20 20 20 20 19 20 22 25 26 26 26 27 29 28 26 24 23 20 15 13 13 13 13 14 14 14 13 12 11 11 13 14 14 15 16 16 16 16 17 19 20 21 21 22 23 23 22 22 20 21 22 23 23 24 25 26 27 27 27 26 26 25 24
15 14 13 14 15 15 15 15 14 14 13 12 12 13 14 14 14 15 15 15 16 17 18 19 20 20 20 21 22 24 27 29 30 29 29 29 30 29 27 26 26 24 20 17 16 15 16 17 16 16 15 13 12 13 14 15 16 16 17 18 17 17 18 19 20 20 21 22 22 22 22 22 21 21 22 23 23 24 25 25 26 26 25 25 24 23 23
16 16 15 16 16 16 16 15 15 16 15 15 14 15 17 16 16 17 17 17 18 18 18 19 20 21 22 23 25 28 29 30 30 30 30 30 30 30 29 28 28 27 25 23 21 19 20 20 19 19 18 15 13 14 15 15 16 17 18 18 18 18 18 18 19 19 19 20 21 22 22 22 22 22 22 23 23 24 24 25 25 25 24 23 22 22 24
18 18 19 19 19 18 16 16 17 17 18 19 18 18 18 18 18 19 20 20 21 22 22 22 23 23 25 26 27 29 29 28 28 29 29 30 30 30 30 30 29 28 27 26 24 21 22 23 22 21 20 17 16 15 15 15 16 17 17 18 18 18 18 19 19 19 18 18 19 20 21 21 21 21 22 23 23 23 23 24 24 23 23 22 22 22 24
19 20 19 19 19 18 16 17 18 18 19 20 20 19 19 19 19 20 21 22 23 24 25 26 26 27 28 28 28 28 27 27 27 28 29 30 31 31 31 31 31 29 29 28 27 25 25 26 24 21 21 20 19 18 17 16 17 16 16 16 16 16 17 18 18 17 17 17 17 18 19 19 20 21 22 22 22 22 23 23 22 22 22 21 21 22 24
20 20 19 18 18 18 17 17 18 19 19 20 21 21 21 21 21 22 23 23 24 26 27 28 28 29 29 28 28 27 27 27 28 29 30 31 31 31 31 31 31 30 29 29 30 28 27 26 24 23 22 21 20 20 20 19 18 17 16 15 15 15 16 16 15 15 15 16 15 16 16 18 19 20 21 21 21 21 21 21 21 21 21 20 21 22 24
21 21 20 19 17 17 16 16 17 18 18 19 20 20 21 22 23 23 24 25 26 27 28 29 29 30 30 29 28 28 27 28 29 31 31 31 30 29 28 28 28 29 28 29 30 29 28 26 25 25 24 21 19 20 21 20 19 17 15 14 14 14 15 16 15 15 15 15 15 15 16 17 19 20 21 20 20 20 20 20 20 20 20 20 21 23 24
23 22 22 21 19 17 16 16 16 17 18 19 19 19 20 21 22 22 23 24 26 27 28 29 30 30 30 30 29 28 28 29 30 30 29 29 28 28 27 26 27 27 26 28 29 28 27 27 26 28 27 23 19 19 20 21 20 17 13 13 13 13 14 14 15 15 15 15 15 16 17 18 19 20 20 20 20 20 19 19 19 19 19 19 21 22 23
24 23 22 21 19 18 17 16 17 18 19 19 19 19 20 20 21 21 22 23 24 26 27 28 29 29 28 28 27 27 27 27 27 26 26 27 27 27 26 27 27 26 24 25 27 27 27 26 26 28 28 24 20 19 20 21 20 15 12 12 12 11 11 12 12 13 14 15 16 17 18 19 20 20 20 20 20 19 19 19 19 19 18 19 21 22 23
23 23 22 21 20 19 18 18 18 18 19 20 20 20 21 21 22 23 23 23 24 25 25 26 27 27 27 26 26 25 25 24 24 24 24 26 26 26 27 27 26 24 23 25 26 25 24 23 24 25 24 22 22 22 21 20 18 14 13 12 10 8 9 10 11 13 14 15 16 17 18 20 20 20 20 19 19 19 19 19 19 18 18 19 20 22 22
24 23 23 22 21 20 19 19 19 20 20 21 21 22 22 23 24 24 23 23 23 23 24 24 25 26 26 25 24 23 22 22 24 24 24 25 25 25 26 24 21 20 23 25 24 22 20 21 21 22 21 20 21 23 22 19 15 13 13 12 9 8 9 10 11 13 14 15 17 18 18 19 19 19 19 19 19 19 18 18 18 18 18 18 20 21 22
25 24 24 24 23 23 22 21 21 21 22 22 22 23 24 24 25 24 23 23 23 23 24 25 25 26 25 24 23 22 21 21 24 24 23 22 22 23 24 23 20 20 22 23 23 23 22 21 20 18 18 19 21 22 21 16 12 10 10 9 8 9 9 10 11 13 15 16 18 19 18 18 18 18 18 19 19 18 17 18 18 18 18 18 19 20 21
26 26 26 25 25 25 24 24 23 23 24 24 24 25 25 25 25 24 23 23 23 24 25 26 26 26 26 25 23 22 20 20 21 21 20 20 20 21 23 22 20 20 21 23 24 25 24 22 19 17 16 16 18 19 16 11 8 6 4 4 5 8 9 10 12 14 15 17 19 19 19 18 18 18 18 18 18 18 17 18 18 18 17 18 19 20 21
28 28 28 28 27 27 27 27 26 26 26 27 27 27 27 27 26 25 24 23 23 24 25 27 27 25 25 26 25 23 20 18 17 18 17 17 18 19 21 21 20 20 21 22 24 26 24 20 18 16 14 13 15 14 12 8 5 3 1 3 6 9 10 11 13 14 16 18 19 19 20 19 18 18 18 17 17 17 17 17 17 17 17 17 18 19 21
30 30 30 30 29 29 29 28 28 28 27 27 27 27 28 28 28 27 26 24 24 23 24 26 28 26 25 25 24 23 20 16 15 15 15 15 17 18 20 20 20 19 20 21 24 25 22 18 15 15 14 12 12 11 9 7 4 2 4 7 10 11 11 12 14 15 16 17 18 19 19 18 18 17 17 17 16 16 16 17 17 17 17 17 17 19 20
31 31 31 31 30 30 30 29 29 28 27 27 26 26 27 27 28 28 27 26 25 24 24 25 27 27 26 24 23 21 18 16 14 14 14 15 16 17 19 20 19 18 19 22 24 24 21 16 14 14 13 10 10 9 9 9 7 6 8 10 12 13 13 14 14 15 16 17 17 18 17 17 16 16 16 16 15 15 16 17 16 16 16 16 17 18 20
32 31 31 31 31 31 31 31 30 29 28 28 27 27 27 27 27 27 27 26 25 24 24 24 25 26 25 24 22 20 18 16 14 14 14 14 15 15 17 19 18 18 20 21 22 22 18 14 14 16 14 10 9 10 13 14 11 9 9 12 13 13 14 14 15 16 16 16 17 16 16 15 15 15 15 15 14 14 15 16 16 16 15 15 16 18 19
33 33 33 33 33 33 33 32 32 32 31 30 30 29 28 27 27 26 26 25 24 24 23 23 23 23 24 23 22 20 18 17 15 14 14 14 14 15 17 18 17 17 17 18 19 17 13 13 17 18 14 11 11 13 16 17 14 11 10 12 13 14 14 15 16 16 16 17 17 16 16 15 15 15 14 14 13 14 15 16 15 15 15 15 16 17 19
35 35 35 35 35 34 34 34 34 34 33 33 32 30 29 28 27 26 25 25 24 24 23 22 21 21 22 22 22 21 20 18 16 15 15 14 13 14 16 16 15 14 12 11 9 7 10 15 17 16 13 12 12 13 16 17 15 12 11 12 13 14 15 16 17 17 17 18 17 17 16 16 15 15 14 14 14 14 15 15 15 14 14 14 16 17 19
37 37 37 36 36 36 35 36 36 35 35 34 33 32 31 28 27 26 26 25 24 24 24 23 22 21 21 21 21 21 20 19 17 16 15 14 13 14 15 15 14 12 8 5 4 5 8 11 12 11 11 12 13 13 15 16 15 13 13 12 12 14 16 18 18 18 18 18 17 17 16 16 16 15 15 14 15 15 15 15 14 14 14 14 15 16 18
39 39 39 38 38 37 37 37 37 36 36 35 34 33 32 30 28 27 27 26 25 24 24 23 23 22 21 20 21 21 21 19 17 16 15 14 13 14 16 16 14 11 9 8 7 7 7 7 8 9 11 13 14 14 15 15 15 15 14 13 12 14 17 19 19 18 17 16 16 16 16 16 16 16 15 15 15 16 15 15 14 14 13 13 14 16 17
41 40 40 40 40 39 38 38 37 37 36 35 34 33 33 31 29 27 27 27 26 26 25 25 24 23 22 21 21 21 21 20 18 17 16 15 15 16 17 17 15 12 11 10 11 10 9 7 8 10 13 15 16 15 14 14 15 16 15 13 13 15 17 19 18 16 15 14 15 15 15 15 15 15 15 16 16 16 15 14 14 13 13 13 14 15 17
40 40 41 41 41 40 39 38 38 37 36 35 34 33 33 32 30 29 28 27 27 26 26 26 25 24 23 22 22 22 22 21 19 19 18 18 17 18 18 18 17 14 12 11 11 11 11 10 10 13 15 17 17 16 14 14 15 15 15 13 13 16 17 17 15 13 13 13 13 14 15 15 15 16 16 16 16 15 14 14 13 13 13 13 13 14 16
39 40 41 41 40 39 38 38 37 36 36 36 35 34 33 32 31 30 29 28 27 27 27 27 26 25 24 23 23 23 23 22 21 20 20 20 19 19 19 19 18 16 14 13 12 13 14 13 14 15 17 18 17 15 14 15 15 15 14 13 14 16 17 15 13 11 11 12 13 14 14 15 15 16 16 16 15 14 13 13 13 12 12 12 13 14 15
38 39 39 39 38 38 37 37 36 36 35 35 35 35 34 33 32 31 30 29 28 28 27 27 27 26 25 25 24 24 23 23 23 22 22 22 21 21 20 20 19 18 16 15 14 16 17 19 20 21 21 20 18 16 15 15 16 15 14 14 15 16 15 13 12 11 12 12 13 14 14 15 15 16 17 16 15 13 13 12 12 12 12 12 12 13 14
37 37 37 37 37 36 36 36 35 35 34 34 34 35 35 34 33 32 30 30 29 29 28 28 28 27 27 26 25 25 25 24 24 24 24 23 22 22 21 20 20 20 19 17 16 17 20 23 26 26 25 23 20 16 15 16 16 15 15 15 15 16 14 13 12 12 13 13 14 14 15 15 15 16 16 15 14 13 13 12 11 12 12 11 12 12 13
35 36 36 36 36 36 35 35 34 33 33 34 34 34 34 34 33 32 31 31 31 30 29 29 28 28 28 27 26 26 26 26 26 26 26 25 24 23 22 21 20 20 20 20 19 20 21 24 27 28 27 25 21 17 15 16 16 16 15 16 15 15 14 13 13 13 13 14 14 15 15 15 16 16 16 15 14 13 12 11 11 11 11 11 11 11 12
34 34 34 35 35 35 34 34 33 33 33 33 34 34 34 33 33 33 32 32 32 32 31 30 29 29 29 29 28 27 28 28 28 27 27 26 25 24 24 23 22 22 23 23 23 23 22 24 27 28 28 25 21 17 16 16 16 16 16 16 15 15 14 14 13 13 13 14 14 15 15 16 16 16 15 14 13 13 12 11 11 11 11 11 11 11 12
32 33 33 33 33 33 33 33 33 32 32 32 33 33 33 32 32 33 33 33 33 33 32 31 30 30 31 31 31 30 30 30 29 29 28 27 26 26 26 26 25 25 25 24 24 23 23 23 26 28 27 24 21 18 17 16 16 16 16 16 15 15 15 15 14 13 13 13 14 15 16 16 17 16 15 13 13 12 11 10 10 11 10 10 10 10 11
32 32 31 31 32 32 32 32 32 32 32 32 32 32 33 33 33 33 34 34 34 34 33 32 31 31 32 33 33 32 31 31 31 30 29 28 28 28 28 28 28 27 25 25 25 24 23 23 25 27 27 25 21 19 18 16 16 16 16 16 16 15 16 16 15 14 13 13 14 15 16 16 16 15 14 13 12 11 10 10 10 10 10 10 9 10 10
31 31 31 31 31 32 32 32 32 32 32 31 31 32 33 34 35 34 35 35 35 35 35 34 33 32 32 33 34 33 33 33 33 32 31 30 30 30 30 31 30 28 27 28 28 25 23 23 24 25 26 26 24 22 19 17 16 16 15 15 16 16 16 16 15 14 13 13 15 16 17 16 15 14 14 13 11 10 9 9 10 10 10 9 9 9 10
30 30 30 30 30 31 31 31 31 31 31 32 32 32 33 34 35 34 34 34 35 35 35 35 34 33 33 34 34 35 34 34 35 34 33 33 33 33 33 33 32 30 30 31 28 25 23 24 23 22 24 26 26 24 21 17 16 15 15 15 16 16 16 16 15 13 13 14 16 16 16 15 14 14 13 12 11 9 9 9 9 10 9 9 8 9 9
29 29 29 29 29 29 29 29 29 30 31 32 32 32 32 33 33 33 33 33 34 35 35 35 35 34 34 35 35 35 35 35 36 36 36 35 36 36 35 34 33 31 30 29 27 25 25 26 23 20 21 25 27 24 20 17 15 14 14 15 16 16 16 15 14 13 14 15 16 16 15 14 14 13 13 12 10 9 8 8 9 9 9 8 8 8 8
27 27 27 27 27 27 27 28 28 29 30 31 31 32 32 32 32 33 33 33 34 34 34 34 34 34 34 35 36 36 36 37 37 38 38 38 38 37 36 35 34 32 29 28 28 28 27 27 24 21 22 25 26 23 19 15 14 14 14 15 15 15 15 14 13 14 15 15 15 15 14 14 13 13 12 11 10 9 8 8 8 8 8 7 7 7 7
25 25 25 25 25 25 26 27 27 28 29 30 31 32 32 32 33 34 34 34 34 34 34 34 33 33 34 35 36 37 38 38 38 39 39 39 39 38 37 36 34 32 29 28 29 29 28 27 26 23 23 25 25 22 18 15 14 14 15 15 15 14 14 14 14 14 15 15 14 14 14 14 13 12 11 10 9 8 7 7 7 8 7 7 6 6 6
24 24 23 23 24 24 25 26 27 28 28 29 31 32 32 32 33 34 34 35 35 35 35 34 33 33 33 34 35 37 38 39 39 40 40 40 40 39 38 36 34 33 31 30 30 29 28 27 27 25 25 26 25 22 19 16 15 15 15 15 14 12 13 14 14 15 15 14 14 15 14 13 12 11 10 10 9 7 6 6 7 7 7 6 5 5 5
23 23 23 23 24 24 25 26 27 28 28 28 29 30 30 31 33 34 34 34 35 35 35 34 33 32 32 33 34 35 36 38 39 39 39 39 39 39 37 34 33 33 33 32 32 31 29 28 28 27 27 27 27 24 21 17 16 15 15 15 13 12 13 14 15 15 15 15 15 15 14 13 11 10 10 9 8 6 5 6 7 7 6 5 4 4 5
23 23 23 24 24 25 26 26 27 27 28 28 28 28 29 30 31 32 32 32 33 33 33 33 32 32 32 33 33 34 35 37 38 38 38 38 38 38 36 34 34 35 34 33 32 32 32 30 29 29 29 29 28 26 23 19 17 16 15 14 12 12 14 16 16 16 15 15 16 16 14 12 10 10 9 8 7 5 5 5 6 7 6 5 4 4 4
23 23 24 24 24 25 25 25 26 26 27 27 27 27 28 29 30 31 31 30 31 31 32 32 33 33 34 34 34 34 35 36 37 38 38 37 37 37 36 35 35 36 35 33 32 33 33 32 30 29 29 30 30 28 24 21 18 17 15 14 13 14 15 17 17 16 15 16 16 15 13 11 10 9 9 8 6 5 4 5 6 6 5 4 3 3 4
23 23 24 24 24 24 24 24 24 25 25 25 26 27 27 28 28 29 29 29 30 31 32 32 34 34 35 34 34 34 35 36 37 38 38 37 37 37 36 34 33 34 35 34 33 34 34 33 31 30 30 31 30 28 25 22 19 17 16 15 14 15 17 18 18 16 15 16 16 14 12 10 10 9 8 7 6 4 4 5 5 5 5 3 3 3 4
23 23 23 22 22 22 22 23 23 23 24 25 26 27 27 26 26 27 27 28 29 31 31 32 32 33 33 33 33 34 35 36 37 38 39 37 36 36 36 34 34 35 36 36 36 34 34 33 33 34 33 32 30 27 25 22 19 17 16 16 16 17 19 19 17 15 15 16 16 13 12 11 10 9 8 7 6 4 4 4 5 4 4 3 3 3 4
22 22 21 21 21 22 22 22 22 23 24 25 26 26 26 25 24 25 26 27 28 29 30 30 30 30 31 31 32 34 36 36 36 37 39 39 38 37 36 36 36 36 37 37 36 33 33 34 36 35 33 32 30 27 24 21 19 17 17 18 18 18 20 19 17 15 16 17 16 14 12 11 10 8 7 7 6 4 4 4 4 4 3 2 2 3 3
Wind_Direction
207 204 198 200 204 208 213 215 213 213 213 214 219 226 232 239 242 245 251 244 221 237 237 224 267 294 302 309 313 315 318 323 336 347 349 349 352 349 343 346 354 0 2 358 353 351 356 4 13 28 23 271 293 302 299 297 300 310 320 324 323 319 317 316 317 318 319 319 319 321 322 323 322 321 319 317 318 321 324 328 332 335 338 341 342 341 339
214 216 210 208 214 221 226 224 224 224 222 223 229 235 238 241 243 247 253 254 249 248 242 236 256 279 291 299 302 302 304 313 329 337 336 343 354 357 355 355 357 359 1 0 357 356 357 6 20 23 11 349 328 312 302 297 295 303 316 321 320 318 316 317 317 317 316 315 316 320 321 321 321 320 322 323 326 329 333 336 339 342 345 345 344 340 337
215 221 221 218 221 229 230 227 232 233 228 228 232 233 235 239 246 253 254 249 247 250 249 254 265 276 286 293 294 294 298 308 318 322 327 339 350 357 2 2 356 351 352 354 355 354 352 4 20 13 358 345 330 313 304 298 294 300 312 317 318 317 317 317 316 315 313 310 311 314 316 318 320 324 332 337 338 338 340 342 344 346 346 345 342 338 335
219 224 227 226 227 229 227 228 232 232 228 230 233 234 233 235 243 259 264 251 240 244 252 261 271 279 288 293 292 293 297 303 308 311 322 333 334 339 350 354 352 349 347 346 347 344 329 317 320 327 329 328 320 311 306 301 295 299 311 316 316 317 316 316 314 313 311 307 306 309 312 317 320 325 335 341 342 341 342 344 346 346 345 342 339 337 335
228 229 231 233 235 234 232 233 236 234 230 233 240 240 237 240 248 260 270 249 235 241 251 260 270 279 286 291 295 301 302 301 303 309 322 330 329 331 337 341 343 346 346 345 343 339 324 305 299 305 311 313 312 311 311 304 297 302 313 316 316 315 314 313 312 311 310 309 308 310 312 316 319 321 326 333 337 339 342 344 344 343 342 340 338 337 335
236 239 241 241 242 239 237 239 241 242 240 238 241 240 240 251 257 255 251 239 231 237 251 261 271 278 280 284 296 311 315 310 309 317 324 327 326 326 329 333 336 339 341 342 339 331 323 309 300 301 304 305 310 314 313 307 304 307 314 315 313 312 311 311 311 312 312 312 312 311 312 316 319 317 318 323 329 334 338 342 342 340 340 339 338 337 335
239 247 250 250 248 243 240 242 245 247 249 248 248 250 253 260 258 246 242 244 241 245 258 269 277 277 275 281 294 310 319 318 315 317 318 317 318 321 325 328 331 333 335 336 333 324 315 305 298 299 299 300 307 311 310 308 306 308 311 311 309 309 310 312 313 314 315 313 311 310 312 316 318 318 319 321 325 329 334 337 338 338 339 338 337 336 334
237 246 250 250 250 248 246 248 250 251 255 257 260 263 264 260 250 243 245 250 255 261 268 273 277 276 277 283 293 304 312 313 310 309 310 311 316 321 323 324 326 328 329 328 323 315 307 297 291 294 294 295 301 305 306 305 304 305 307 307 306 308 311 313 313 313 312 310 308 309 311 312 312 316 320 322 325 329 332 333 335 337 338 337 336 335 333
230 240 246 245 246 250 251 252 255 256 258 261 264 266 263 253 244 242 245 249 255 262 267 270 276 279 281 285 292 299 305 307 307 308 310 313 318 321 321 321 322 322 322 319 311 302 296 289 285 290 292 293 298 302 302 302 302 304 305 304 305 309 312 312 310 309 309 311 312 312 312 311 310 314 319 323 326 328 329 331 334 336 337 336 335 334 334
221 230 239 240 240 245 250 252 255 257 258 260 261 260 259 256 250 245 245 248 253 257 261 266 273 279 283 286 292 298 303 305 305 307 310 313 315 317 317 317 317 316 314 306 292 283 282 280 279 285 287 288 293 297 297 298 299 298 299 301 303 308 310 309 309 312 315 318 318 317 315 313 313 317 321 323 325 326 328 331 335 335 335 334 334 334 335
220 223 232 237 236 237 243 247 250 251 253 255 255 256 260 263 262 257 253 254 258 261 263 267 273 280 284 289 293 298 301 302 302 304 306 308 309 311 312 312 312 310 305 292 274 266 270 272 271 275 279 281 286 290 290 291 293 293 295 299 302 306 309 311 314 318 321 321 320 318 317 315 315 318 321 323 324 326 329 333 334 334 333 333 334 335 336
225 225 230 238 241 241 243 246 249 250 250 252 255 261 266 266 264 262 259 260 265 268 271 275 278 282 285 289 294 297 299 299 298 299 300 301 304 307 309 309 307 304 300 294 282 270 269 270 266 265 268 271 275 281 284 286 289 291 294 297 301 306 309 314 317 319 319 319 317 317 316 316 316 319 321 323 326 329 331 333 333 333 332 332 334 335 336
225 226 229 236 245 251 254 255 258 261 262 262 263 265 268 269 267 263 262 265 268 271 275 278 280 283 286 290 294 297 298 297 296 295 295 297 301 305 307 306 305 304 303 303 299 288 278 272 266 262 264 266 269 274 280 285 288 291 294 296 299 303 306 311 313 313 314 316 315 314 314 314 316 319 322 325 328 330 332 333 332 331 331 333 335 336 337
226 227 227 231 239 250 259 263 266 271 272 270 268 266 266 269 269 267 266 268 270 273 275 278 281 284 287 291 294 297 298 296 294 293 294 297 301 304 304 302 302 302 299 297 294 284 271 264 260 261 265 268 269 272 276 282 286 290 293 295 297 301 305 308 308 308 312 316 314 313 314 315 318 322 324 327 329 331 333 333 331 330 332 335 337 337 337
232 231 230 231 236 245 255 262 267 271 271 269 270 269 268 268 267 266 267 268 270 273 274 277 280 283 286 289 292 294 295 294 294 295 297 300 302 301 300 299 297 296 294 291 287 279 270 261 255 256 261 263 265 270 274 279 285 290 292 294 299 304 306 307 308 310 314 317 316 315 316 318 321 324 325 327 329 332 333 332 331 332 335 337 337 336 337
242 242 241 239 239 244 249 253 258 263 264 265 267 268 267 267 266 266 267 269 272 274 275 277 279 281 283 286 288 290 292 293 296 298 299 300 300 299 299 298 296 294 293 291 287 284 280 271 256 250 255 255 256 263 272 278 283 288 293 298 305 309 308 309 314 317 318 319 319 319 320 321 323 324 326 328 331 332 332 332 333 335 337 336 335 337 339
250 250 250 249 247 246 247 248 250 253 255 257 259 262 264 266 266 266 267 268 270 271 273 274 275 277 279 282 284 286 289 291 294 296 296 298 298 299 300 299 295 292 289 287 284 283 284 278 261 249 248 245 244 255 268 275 280 285 293 304 311 312 311 312 317 321 323 324 323 323 323 324 325 326 328 330 332 332 332 334 335 336 336 335 336 339 340
253 254 255 256 256 254 253 251 248 247 248 249 252 255 259 262 264 266 267 267 269 270 271 271 272 274 276 279 281 283 285 287 289 290 293 295 297 299 300 295 291 289 284 280 281 283 285 282 267 254 249 244 242 251 260 265 271 278 290 303 309 311 313 314 317 321 325 326 325 326 327 328 329 330 331 331 332 333 334 335 336 337 337 337 338 340 341
253 255 256 257 257 256 256 254 249 246 247 249 251 252 254 257 261 265 267 269 270 271 272 273 273 274 276 278 280 282 283 285 286 288 291 293 295 298 299 295 298 302 297 289 289 292 295 290 275 262 259 259 261 266 267 265 266 272 284 293 297 303 311 315 320 325 327 327 328 330 331 331 332 332 332 332 334 334 335 336 337 338 338 338 339 340 341
249 252 254 255 255 255 254 254 251 248 246 248 249 252 254 256 259 262 265 269 271 273 274 276 276 276 277 277 277 279 281 282 285 288 291 291 294 298 299 301 309 313 306 299 298 297 297 293 279 266 264 269 275 282 282 271 263 268 280 284 286 300 315 321 327 330 329 328 329 330 331 332 332 331 331 333 336 336 335 337 339 339 337 337 339 340 341
246 248 251 254 255 255 252 250 249 247 246 245 246 249 253 255 257 261 264 268 271 273 275 277 278 278 278 276 276 276 278 280 284 288 289 289 292 296 298 303 309 306 299 300 303 297 293 293 285 271 265 269 279 286 282 264 249 257 274 277 280 302 319 328 334 333 330 329 328 328 330 331 329 329 332 337 338 336 336 338 339 337 335 336 338 339 340
246 248 250 251 252 253 251 249 248 249 250 251 251 252 253 255 257 260 263 266 268 270 272 275 277 280 280 279 277 276 276 279 283 286 287 288 291 294 296 299 301 297 295 299 303 302 300 298 292 278 265 268 281 288 281 261 245 254 268 267 276 302 323 335 338 335 332 329 327 326 326 327 327 331 337 340 338 336 337 339 338 335 333 334 335 337 341
246 247 249 250 252 253 254 252 251 252 252 254 255 255 255 256 258 260 263 266 269 273 275 277 278 279 281 281 279 278 278 280 282 285 286 288 290 292 295 297 297 296 294 296 303 310 310 303 291 276 264 271 286 289 279 258 238 237 247 257 286 310 327 338 339 337 334 329 326 323 323 326 330 335 339 339 337 336 337 338 335 330 328 329 332 337 342
248 249 250 252 253 254 255 255 254 253 252 252 253 255 256 258 260 263 265 266 269 273 277 280 280 279 280 281 281 280 281 281 282 282 284 287 290 292 293 295 296 296 294 295 302 308 309 300 284 267 260 275 290 287 272 253 223 196 215 303 311 316 328 338 340 337 333 328 323 321 323 327 332 336 338 338 336 335 336 335 331 326 323 325 330 337 342
250 251 252 253 254 255 256 256 256 255 254 254 255 256 258 259 260 261 262 263 265 268 272 276 279 280 280 280 280 280 281 279 277 277 281 286 289 291 292 293 295 295 294 293 297 299 296 287 271 254 251 271 287 279 263 257 256 282 321 318 314 319 329 338 339 335 330 325 322 321 324 327 331 334 336 336 334 333 333 331 326 321 319 322 329 337 342
251 251 252 253 254 255 256 257 257 258 258 259 260 261 261 260 260 260 260 261 262 264 266 269 274 277 279 279 279 278 278 276 272 273 279 283 285 289 291 291 292 295 296 295 296 294 288 275 252 234 236 259 275 267 257 261 273 299 314 311 312 319 331 338 337 332 327 324 322 322 324 326 329 333 334 332 331 330 330 326 322 317 316 321 329 337 342
252 253 253 253 255 256 258 260 262 263 264 265 265 265 265 264 264 263 263 262 260 261 262 265 269 273 276 277 277 275 274 273 271 272 277 281 284 287 289 289 292 298 301 299 296 290 281 260 228 215 223 243 255 256 264 271 278 290 301 303 310 321 332 336 333 329 326 324 323 323 325 326 328 330 330 329 328 327 325 322 318 314 315 321 330 336 340
253 254 255 257 259 261 263 265 267 268 268 268 268 268 267 267 266 266 265 265 263 262 261 262 264 267 271 273 273 272 270 271 272 274 277 280 284 286 285 287 296 304 303 297 291 279 255 223 208 208 218 237 246 254 267 273 275 282 294 301 310 321 329 331 330 327 327 327 326 326 326 326 326 327 327 327 326 324 321 319 316 314 316 323 331 336 339
254 256 257 259 261 263 265 267 268 269 270 271 271 270 269 268 268 267 267 266 266 264 262 260 260 261 264 266 268 268 268 270 273 275 278 280 283 285 284 287 297 303 297 289 282 251 203 196 201 208 220 238 247 256 264 267 270 281 292 298 307 317 324 326 326 326 328 329 328 327 325 323 324 326 328 328 325 320 318 318 317 317 320 325 331 336 339
254 255 257 258 260 262 264 266 268 269 270 271 271 271 270 268 267 267 267 267 266 265 262 260 260 259 258 259 261 262 265 268 270 273 277 280 282 283 281 283 291 293 275 244 214 186 184 193 204 214 228 244 254 260 263 265 271 280 286 292 304 315 321 324 325 326 328 329 328 325 322 319 322 326 328 328 322 317 317 319 320 320 322 326 330 335 339
253 255 256 258 260 262 264 266 267 269 270 270 270 270 270 268 266 265 266 267 267 267 264 261 260 259 256 255 255 257 260 265 268 271 275 277 277 277 276 276 281 280 259 231 217 215 215 218 223 231 240 251 260 265 266 268 274 278 282 290 304 315 321 324 324 325 326 326 325 321 317 316 320 325 328 326 320 316 318 322 322 321 322 326 329 334 338
252 254 256 257 259 261 263 265 267 268 269 269 269 269 269 268 266 264 263 264 266 266 265 262 260 258 255 252 251 252 256 261 265 268 270 271 272 272 272 272 271 268 258 245 238 233 228 226 235 247 255 260 264 267 270 272 275 279 283 293 307 317 321 322 322 323 324 324 321 317 313 315 320 326 326 323 317 314 317 322 323 322 322 325 329 334 339
251 252 254 255 257 260 262 264 265 266 268 269 269 268 268 268 266 264 262 261 261 262 263 261 259 256 253 250 248 249 253 257 261 263 266 269 271 272 272 272 270 265 260 254 246 234 224 222 236 252 261 264 266 270 275 277 278 281 286 296 309 316 319 319 321 322 324 322 318 312 311 316 322 325 324 319 313 312 317 323 324 322 322 324 328 333 339
250 251 252 254 256 258 259 261 263 264 266 267 268 268 268 267 266 264 261 259 259 259 259 258 256 253 251 248 246 247 250 254 257 261 264 268 271 272 272 272 271 267 262 256 247 236 230 231 238 246 255 262 267 274 281 282 280 282 288 297 308 314 317 318 321 322 323 321 315 312 313 318 323 324 321 315 310 310 316 323 325 323 322 324 328 333 341
250 251 252 253 254 256 257 259 261 262 263 265 266 267 267 266 266 264 262 259 258 258 257 255 253 251 248 246 244 245 248 251 254 258 261 263 266 268 269 270 269 266 260 256 249 240 237 239 242 245 251 259 267 275 282 284 283 284 288 297 306 312 315 318 320 322 324 321 315 313 316 320 323 322 317 311 308 310 316 322 325 324 323 324 327 333 342
249 251 252 253 254 255 256 258 259 260 262 262 263 264 265 266 265 264 262 260 258 257 256 255 253 250 247 245 243 243 245 248 251 254 257 260 262 264 265 266 266 263 259 257 254 248 241 240 242 245 249 255 263 271 278 282 283 285 289 297 305 310 313 316 319 323 324 319 315 315 318 320 321 318 313 308 307 310 314 321 327 326 324 324 327 334 344
249 250 251 252 253 255 256 258 259 260 261 261 262 263 264 265 266 265 263 261 258 257 256 254 252 250 248 246 243 242 243 245 248 251 255 258 260 261 262 262 262 262 259 255 252 249 244 239 240 243 247 251 257 264 272 277 282 285 289 295 303 308 311 314 318 321 321 319 316 316 317 318 317 313 309 307 307 308 311 321 329 329 325 323 327 336 346
250 250 250 251 253 254 255 257 258 259 260 261 262 263 264 264 265 265 263 261 258 256 254 253 251 249 248 246 244 241 241 243 246 249 253 257 259 260 261 260 259 257 256 253 251 253 250 242 238 240 244 248 252 257 263 271 278 283 286 292 299 305 309 312 316 320 321 319 316 314 314 314 312 308 306 306 305 304 310 322 330 329 326 325 329 337 346
251 251 251 252 253 254 256 257 258 259 259 260 262 263 264 264 263 263 262 261 259 256 253 252 250 248 247 245 243 241 240 241 243 246 251 255 257 258 259 259 258 257 257 258 258 259 256 248 241 239 240 243 246 250 257 266 274 278 283 290 296 301 305 309 314 321 323 318 312 311 310 309 307 306 305 304 302 302 311 325 330 329 327 327 330 337 344
251 252 253 254 255 256 258 259 260 261 261 261 261 262 263 263 262 262 261 261 260 257 255 252 250 247 246 245 243 242 240 240 242 245 248 252 255 256 258 259 260 260 260 259 256 253 250 249 246 242 238 237 241 246 252 260 268 273 280 288 293 296 301 306 313 320 322 314 307 305 304 303 304 305 303 301 300 304 314 325 329 329 329 330 333 338 344
250 252 253 255 256 258 259 261 262 263 263 263 262 262 262 262 262 262 261 261 260 258 256 253 250 248 246 245 244 242 241 241 242 244 247 250 253 255 256 257 259 259 258 254 250 245 243 247 249 244 236 234 239 245 247 253 262 269 277 286 291 293 298 305 312 318 317 308 302 300 300 300 302 303 300 298 300 306 314 323 329 331 331 333 336 340 346
250 252 253 255 258 259 261 262 263 264 265 264 263 261 261 262 262 262 262 261 260 258 256 254 250 247 245 245 244 242 241 241 242 244 246 249 251 252 253 255 256 257 257 254 248 242 240 245 251 247 235 231 235 240 242 246 257 267 276 284 290 294 299 305 311 313 308 301 297 296 297 299 301 300 298 298 301 308 315 323 328 332 333 335 338 343 349
251 253 255 257 259 261 263 264 264 264 265 265 264 263 262 262 262 261 260 259 258 258 256 254 251 247 244 244 244 243 242 242 243 243 245 247 249 250 252 254 254 255 257 257 252 244 241 244 248 243 229 224 228 233 237 242 253 266 276 283 290 295 300 306 310 307 300 295 293 293 295 298 299 298 296 298 303 310 316 322 328 332 334 337 341 346 352
252 254 256 257 260 261 262 263 263 263 263 264 265 264 263 261 260 258 257 256 257 258 257 254 251 247 243 242 242 243 242 242 243 244 245 247 248 250 252 253 252 252 254 255 251 246 245 247 246 236 223 221 225 230 234 241 252 264 273 281 288 295 301 306 306 299 292 290 290 291 294 296 296 296 297 301 306 311 314 319 328 333 336 339 344 349 355
254 256 258 259 260 261 261 261 262 262 262 263 263 263 262 260 258 257 255 255 256 257 257 255 253 249 244 242 242 243 243 243 243 244 246 248 250 249 248 248 248 247 247 246 244 242 243 247 247 237 224 223 228 232 234 240 252 261 269 276 285 294 301 301 295 287 283 283 285 288 291 293 294 296 300 305 308 309 311 318 327 334 338 341 346 353 359
256 258 259 259 259 259 259 260 260 261 262 263 263 263 262 261 260 258 257 256 255 256 257 257 255 252 248 245 244 244 244 244 244 244 246 247 249 249 248 246 245 244 241 239 238 237 238 243 246 239 228 226 231 235 235 240 249 257 265 273 283 293 296 292 285 278 277 279 282 285 287 289 291 296 302 305 305 304 307 316 327 334 339 342 347 355 0
254 254 255 255 256 256 257 258 259 261 262 262 264 264 264 264 262 261 259 258 258 258 258 258 257 255 253 249 247 246 246 245 244 244 245 246 247 247 246 245 245 244 241 238 236 233 231 234 238 235 228 227 232 235 235 237 244 253 262 272 282 288 287 281 275 272 273 278 281 282 283 284 289 296 302 302 300 297 302 315 327 334 338 342 346 352 360
248 249 250 251 252 253 255 257 259 261 263 264 265 265 265 265 265 264 262 261 261 260 260 260 259 257 255 252 250 249 247 245 244 244 243 242 243 244 242 240 239 239 237 235 235 234 232 229 228 226 225 228 231 233 233 234 240 249 259 268 277 281 277 271 266 265 268 273 276 276 277 281 289 297 301 299 293 290 298 315 326 333 336 338 341 349 358
243 245 247 248 250 252 255 258 260 263 265 266 267 266 265 265 266 266 265 264 263 262 261 260 259 257 255 253 251 249 246 244 243 241 240 239 239 239 237 235 233 232 232 230 231 232 232 228 222 220 223 228 230 232 233 236 240 246 256 265 271 271 268 263 260 260 265 270 271 272 274 280 288 295 297 292 282 278 293 314 326 331 333 335 339 346 356
242 244 246 248 251 254 257 260 262 265 267 269 269 268 267 266 266 267 267 266 264 262 260 258 257 256 255 253 252 250 247 244 241 239 238 237 237 236 234 229 226 226 226 225 225 228 232 228 219 215 220 227 231 234 237 239 240 243 251 259 263 262 258 255 254 258 264 269 270 271 275 282 288 291 289 281 270 270 290 313 323 327 331 337 342 346 350
244 246 248 252 255 257 259 263 266 268 269 270 271 271 270 269 268 268 267 266 265 263 262 260 258 257 255 254 253 252 250 247 243 239 236 234 233 232 230 225 220 218 219 219 220 226 232 230 220 215 218 225 231 235 239 238 237 240 248 254 254 252 249 248 250 257 264 267 268 270 274 279 283 284 280 271 263 266 287 307 318 326 332 343 350 346 341
245 249 253 257 259 259 261 265 269 271 271 271 272 272 273 273 271 269 266 265 266 266 265 263 260 257 255 253 252 249 248 247 245 239 233 229 226 224 223 220 216 214 214 215 217 224 231 230 221 215 216 222 229 235 237 234 231 236 245 247 245 242 241 243 247 255 261 263 264 266 269 272 274 275 271 262 255 260 282 304 318 325 331 343 350 342 332
Height
5905 5906 5907 5908 5908 5909 5910 5911 5912 5913 5915 5916 5917 5918 5918 5919 5919 5920 5920 5921 5922 5922 5922 5922 5922 5922 5921 5921 5922 5921 5920 5919 5919 5919 5918 5917 5916 5914 5912 5911 5910 5908 5906 5905 5903 5901 5899 5897 5894 5894 5894 5895 5895 5895 5895 5895 5895 5894 5893 5892 5892 5891 5891 5890 5889 5888 5887 5886 5885 5884 5883 5882 5881 5880 5879 5877 5876 5874 5873 5871 5870 5869 5867 5866 5864 5862 5861
5904 5906 5907 5907 5908 5909 5910 5911 5912 5913 5914 5915 5916 5917 5917 5918 5919 5919 5919 5920 5921 5921 5922 5922 5922 5921 5921 5921 5921 5920 5919 5919 5919 5919 5917 5916 5916 5914 5912 5911 5910 5908 5907 5905 5903 5902 5901 5899 5898 5897 5896 5896 5896 5896 5895 5895 5894 5893 5892 5892 5892 5891 5891 5890 5889 5888 5887 5886 5885 5884 5883 5882 5881 5880 5878 5877 5875 5874 5872 5871 5869 5868 5866 5864 5863 5862 5861
5904 5904 5905 5907 5908 5909 5910 5911 5911 5912 5913 5914 5915 5916 5917 5917 5918 5918 5918 5920 5921 5921 5921 5921 5921 5921 5921 5921 5921 5920 5919 5919 5919 5918 5917 5916 5915 5914 5913 5911 5910 5908 5907 5905 5904 5903 5902 5901 5899 5898 5898 5898 5897 5896 5895 5895 5893 5892 5891 5891 5891 5891 5890 5890 5889 5888 5887 5886 5885 5884 5883 5881 5880 5879 5878 5877 5875 5874 5872 5870 5868 5866 5865 5864 5862 5861 5860
5902 5903 5904 5906 5907 5908 5909 5910 5911 5912 5912 5913 5914 5915 5916 5916 5917 5917 5917 5918 5920 5920 5920 5920 5920 5920 5920 5920 5920 5919 5919 5919 5918 5917 5916 5915 5914 5914 5912 5911 5910 5908 5907 5905 5904 5903 5902 5901 5900 5898 5898 5897 5897 5895 5895 5894 5893 5891 5890 5890 5890 5890 5889 5889 5888 5887 5887 5885 5884 5883 5882 5881 5880 5879 5877 5876 5875 5874 5871 5869 5867 5866 5865 5863 5862 5861 5859
5900 5902 5903 5905 5906 5907 5909 5909 5910 5911 5912 5913 5913 5914 5915 5915 5916 5917 5917 5917 5918 5919 5919 5919 5919 5919 5919 5919 5919 5919 5918 5918 5917 5916 5915 5914 5913 5913 5912 5910 5909 5907 5906 5905 5904 5903 5902 5900 5899 5897 5896 5896 5895 5894 5894 5893 5892 5890 5889 5889 5889 5888 5888 5888 5887 5887 5886 5885 5884 5884 5883 5882 5880 5878 5877 5876 5875 5873 5871 5869 5867 5866 5864 5863 5861 5860 5858
5899 5900 5901 5903 5904 5906 5907 5907 5909 5910 5911 5912 5912 5913 5914 5914 5915 5916 5916 5917 5917 5917 5918 5918 5918 5918 5918 5918 5918 5918 5917 5916 5916 5915 5914 5913 5912 5912 5911 5909 5907 5906 5905 5904 5902 5901 5900 5899 5897 5896 5895 5894 5894 5893 5893 5892 5891 5890 5888 5888 5887 5887 5887 5887 5886 5886 5885 5884 5884 5883 5882 5881 5880 5878 5877 5875 5874 5872 5870 5868 5867 5865 5864 5862 5861 5859 5857
5898 5899 5900 5901 5903 5904 5905 5906 5907 5908 5909 5910 5911 5912 5912 5913 5913 5914 5915 5916 5916 5916 5917 5917 5917 5917 5917 5917 5917 5916 5915 5915 5914 5914 5913 5912 5911 5910 5909 5907 5906 5904 5903 5902 5901 5899 5898 5897 5896 5894 5894 5893 5892 5892 5891 5891 5890 5888 5887 5886 5886 5885 5886 5886 5885 5885 5883 5882 5882 5881 5881 5880 5880 5878 5876 5874 5873 5871 5869 5868 5866 5865 5863 5861 5859 5857 5855
5897 5898 5899 5900 5901 5902 5903 5904 5905 5906 5908 5909 5909 5910 5911 5911 5912 5913 5914 5914 5915 5915 5916 5916 5916 5916 5915 5915 5915 5914 5914 5913 5913 5912 5912 5910 5909 5908 5907 5905 5904 5902 5901 5900 5899 5898 5897 5895 5894 5893 5892 5891 5891 5891 5890 5890 5888 5887 5886 5885 5884 5884 5885 5885 5884 5882 5881 5880 5879 5879 5879 5878 5878 5877 5875 5874 5872 5870 5868 5867 5865 5864 5862 5860 5858 5855 5853
5896 5897 5898 5899 5899 5900 5902 5903 5903 5904 5906 5907 5908 5909 5909 5910 5911 5911 5912 5913 5913 5914 5914 5914 5914 5914 5914 5913 5913 5912 5912 5912 5911 5911 5910 5908 5907 5906 5905 5904 5902 5900 5899 5898 5897 5896 5895 5894 5893 5892 5891 5891 5890 5889 5889 5888 5887 5886 5884 5883 5883 5884 5884 5883 5882 5881 5880 5879 5878 5878 5877 5877 5875 5874 5873 5872 5871 5869 5867 5865 5864 5862 5860 5858 5856 5853 5851
5894 5895 5896 5897 5898 5900 5900 5901 5902 5903 5904 5905 5906 5907 5908 5908 5909 5910 5910 5911 5911 5912 5912 5913 5913 5912 5912 5911 5911 5911 5910 5910 5909 5908 5907 5906 5905 5904 5903 5902 5900 5899 5898 5897 5896 5895 5894 5893 5892 5891 5890 5890 5889 5888 5888 5887 5886 5885 5883 5882 5882 5883 5883 5882 5881 5880 5879 5879 5878 5878 5877 5876 5874 5873 5872 5871 5869 5868 5866 5864 5862 5860 5858 5856 5854 5851 5849
5893 5894 5895 5896 5897 5898 5899 5900 5901 5902 5903 5904 5905 5906 5907 5907 5908 5908 5909 5909 5910 5910 5910 5911 5911 5910 5910 5909 5909 5909 5908 5907 5906 5906 5905 5904 5903 5902 5901 5900 5899 5897 5896 5895 5894 5893 5893 5892 5891 5890 5889 5889 5888 5887 5887 5886 5885 5884 5882 5882 5881 5881 5881 5880 5879 5879 5878 5878 5877 5877 5876 5875 5874 5872 5871 5870 5868 5866 5864 5862 5861 5859 5857 5854 5852 5850 5848
5893 5894 5894 5895 5895 5896 5897 5898 5899 5900 5901 5902 5904 5904 5905 5905 5906 5907 5907 5908 5908 5908 5908 5908 5908 5908 5908 5907 5907 5906 5906 5905 5904 5903 5903 5902 5901 5900 5899 5898 5897 5895 5894 5894 5893 5893 5892 5892 5891 5890 5888 5887 5886 5886 5885 5885 5884 5883 5882 5881 5881 5880 5880 5879 5878 5877 5876 5876 5876 5875 5875 5874 5873 5871 5869 5868 5866 5864 5862 5861 5859 5857 5855 5853 5851 5849 5846
5892 5893 5893 5893 5893 5894 5895 5897 5897 5898 5899 5900 5902 5903 5903 5903 5904 5905 5905 5906 5906 5906 5906 5906 5906 5906 5906 5906 5905 5904 5903 5902 5902 5901 5900 5900 5899 5898 5897 5896 5895 5894 5893 5893 5892 5892 5891 5891 5891 5890 5888 5886 5885 5884 5884 5883 5883 5882 5881 5880 5879 5879 5878 5877 5876 5875 5874 5874 5874 5873 5873 5872 5871 5869 5868 5866 5865 5863 5861 5859 5857 5855 5853 5851 5849 5847 5845
5891 5891 5892 5892 5892 5893 5894 5895 5895 5896 5897 5898 5899 5900 5901 5901 5902 5903 5903 5904 5904 5904 5904 5904 5904 5904 5904 5903 5903 5902 5901 5900 5899 5899 5898 5898 5897 5896 5895 5894 5893 5892 5891 5890 5889 5889 5888 5887 5888 5889 5888 5887 5885 5883 5882 5882 5881 5880 5879 5878 5877 5877 5876 5875 5875 5873 5873 5872 5872 5872 5871 5870 5869 5867 5866 5864 5863 5861 5859 5857 5856 5854 5852 5850 5848 5846 5843
5889 5889 5890 5891 5892 5892 5893 5894 5894 5895 5895 5896 5897 5898 5899 5899 5900 5900 5901 5901 5901 5902 5902 5902 5902 5902 5901 5901 5900 5900 5899 5898 5897 5897 5896 5895 5894 5893 5892 5891 5891 5889 5888 5886 5885 5884 5883 5882 5882 5884 5885 5885 5884 5882 5881 5880 5879 5878 5877 5875 5875 5875 5874 5873 5873 5872 5872 5871 5870 5870 5869 5868 5867 5866 5864 5863 5861 5859 5857 5856 5854 5852 5850 5848 5846 5844 5842
5886 5887 5888 5890 5891 5891 5892 5893 5893 5893 5893 5894 5894 5895 5896 5896 5897 5898 5898 5898 5899 5899 5898 5899 5899 5898 5898 5898 5898 5897 5897 5896 5895 5895 5893 5892 5892 5891 5890 5889 5887 5886 5885 5883 5881 5880 5880 5879 5878 5878 5879 5880 5881 5881 5879 5878 5877 5876 5875 5874 5873 5873 5872 5871 5871 5871 5870 5869 5868 5868 5868 5867 5865 5864 5863 5861 5859 5858 5856 5854 5852 5850 5848 5847 5845 5843 5841
5883 5884 5885 5887 5888 5889 5890 5890 5891 5891 5891 5891 5892 5893 5893 5894 5894 5895 5895 5896 5896 5896 5895 5896 5896 5895 5896 5895 5895 5895 5895 5894 5893 5892 5891 5890 5889 5888 5887 5885 5883 5881 5880 5878 5877 5877 5877 5877 5876 5874 5873 5874 5876 5878 5878 5877 5876 5875 5874 5872 5872 5871 5870 5869 5868 5868 5868 5867 5867 5867 5866 5865 5864 5863 5861 5860 5858 5856 5854 5852 5850 5849 5847 5845 5844 5842 5839
5880 5881 5882 5883 5885 5886 5887 5888 5888 5888 5888 5889 5889 5890 5891 5891 5892 5892 5892 5893 5893 5893 5893 5893 5893 5893 5893 5893 5893 5893 5893 5892 5892 5890 5889 5887 5886 5884 5883 5880 5877 5876 5875 5873 5873 5873 5874 5873 5873 5871 5871 5871 5873 5874 5875 5874 5873 5872 5872 5871 5870 5870 5869 5867 5867 5867 5867 5866 5866 5866 5865 5864 5863 5861 5860 5859 5857 5854 5852 5851 5849 5848 5846 5844 5842 5840 5838
5877 5878 5879 5880 5882 5883 5884 5885 5886 5886 5887 5887 5887 5888 5889 5889 5890 5890 5890 5890 5890 5890 5890 5890 5890 5890 5891 5890 5890 5890 5890 5890 5889 5888 5886 5885 5882 5881 5878 5875 5875 5876 5875 5872 5871 5872 5872 5871 5870 5870 5871 5872 5873 5873 5872 5872 5871 5870 5869 5868 5868 5867 5867 5867 5866 5866 5866 5866 5866 5865 5864 5863 5862 5860 5859 5858 5856 5853 5851 5850 5848 5846 5845 5843 5841 5839 5837
5874 5875 5876 5877 5878 5880 5881 5882 5883 5884 5885 5885 5886 5886 5887 5887 5887 5887 5887 5888 5888 5888 5887 5887 5887 5887 5887 5888 5888 5888 5888 5887 5886 5885 5884 5882 5880 5878 5876 5874 5875 5876 5874 5871 5870 5870 5870 5869 5868 5869 5871 5872 5873 5872 5871 5870 5870 5869 5868 5867 5866 5866 5865 5865 5865 5865 5865 5865 5865 5864 5863 5862 5860 5859 5858 5856 5854 5852 5850 5848 5847 5845 5844 5842 5840 5838 5836
5871 5872 5873 5874 5875 5877 5878 5879 5880 5881 5882 5882 5883 5884 5884 5884 5884 5884 5885 5885 5885 5885 5885 5884 5884 5884 5884 5884 5885 5885 5885 5885 5884 5883 5881 5879 5877 5876 5874 5873 5874 5873 5870 5869 5868 5867 5867 5866 5866 5867 5869 5870 5870 5870 5869 5867 5866 5866 5867 5867 5868 5867 5865 5864 5864 5864 5864 5864 5864 5863 5861 5860 5859 5857 5856 5854 5853 5851 5849 5847 5846 5845 5843 5841 5839 5837 5835
5868 5869 5870 5871 5872 5873 5874 5876 5877 5878 5878 5879 5880 5880 5881 5881 5881 5881 5881 5882 5882 5882 5881 5881 5881 5880 5880 5881 5881 5882 5883 5882 5881 5880 5878 5877 5875 5873 5872 5871 5871 5870 5867 5867 5866 5865 5865 5865 5864 5865 5866 5868 5868 5868 5867 5865 5863 5862 5863 5865 5867 5867 5865 5863 5862 5863 5863 5863 5862 5861 5860 5859 5857 5855 5854 5852 5851 5849 5848 5846 5845 5844 5842 5840 5839 5837 5835
5864 5865 5866 5867 5868 5869 5870 5872 5873 5874 5875 5876 5876 5876 5876 5877 5877 5878 5878 5878 5878 5878 5878 5877 5878 5878 5877 5877 5878 5878 5879 5879 5878 5877 5876 5874 5873 5871 5869 5868 5868 5867 5865 5864 5863 5863 5863 5863 5863 5863 5864 5866 5866 5867 5866 5864 5861 5860 5861 5863 5865 5865 5864 5861 5861 5861 5861 5861 5861 5860 5859 5857 5855 5853 5852 5851 5849 5848 5846 5845 5844 5843 5841 5840 5838 5836 5834
5861 5862 5863 5864 5865 5865 5866 5868 5869 5870 5871 5871 5872 5872 5873 5873 5874 5875 5875 5876 5876 5875 5874 5873 5874 5874 5874 5874 5874 5875 5876 5876 5875 5874 5873 5872 5871 5869 5867 5866 5866 5865 5864 5863 5862 5861 5861 5860 5860 5861 5863 5864 5865 5865 5866 5864 5861 5860 5861 5863 5864 5864 5862 5860 5859 5859 5859 5860 5860 5859 5857 5855 5853 5852 5850 5849 5848 5846 5845 5844 5843 5842 5840 5839 5837 5836 5833
5857 5858 5859 5860 5860 5861 5862 5863 5864 5866 5867 5868 5868 5869 5870 5870 5871 5871 5872 5872 5873 5873 5872 5871 5870 5870 5871 5871 5871 5871 5872 5873 5872 5872 5871 5870 5868 5866 5865 5863 5863 5862 5862 5862 5860 5859 5858 5857 5858 5859 5861 5863 5863 5864 5865 5864 5862 5861 5862 5863 5863 5863 5860 5858 5858 5858 5858 5858 5858 5857 5855 5854 5852 5850 5849 5847 5846 5845 5844 5843 5842 5841 5840 5838 5837 5835 5832
5853 5854 5855 5856 5856 5857 5858 5859 5860 5861 5863 5864 5865 5865 5866 5866 5867 5867 5868 5869 5869 5869 5869 5869 5867 5867 5867 5868 5868 5868 5869 5869 5869 5869 5868 5868 5866 5865 5863 5861 5861 5860 5860 5859 5857 5855 5854 5854 5855 5857 5859 5861 5862 5863 5864 5863 5862 5861 5861 5862 5863 5862 5859 5857 5856 5857 5857 5857 5856 5855 5854 5852 5851 5849 5848 5846 5845 5844 5843 5842 5841 5840 5839 5837 5836 5834 5832
5849 5850 5851 5852 5852 5853 5854 5855 5856 5857 5859 5860 5861 5861 5862 5862 5863 5863 5864 5865 5865 5865 5866 5865 5865 5864 5864 5864 5865 5865 5866 5866 5866 5866 5866 5865 5864 5863 5861 5860 5859 5858 5857 5855 5853 5852 5851 5852 5853 5855 5857 5859 5860 5861 5862 5862 5861 5860 5860 5862 5862 5860 5858 5856 5856 5856 5856 5855 5855 5854 5853 5851 5850 5848 5847 5846 5844 5843 5842 5842 5840 5839 5838 5836 5835 5833 5831
5844 5845 5846 5847 5848 5849 5850 5851 5852 5853 5854 5855 5856 5857 5858 5858 5859 5860 5860 5860 5861 5862 5862 5862 5862 5861 5861 5861 5861 5862 5863 5863 5864 5864 5863 5863 5862 5861 5860 5859 5858 5856 5854 5852 5850 5849 5848 5849 5851 5853 5855 5857 5858 5859 5860 5861 5860 5860 5860 5861 5860 5859 5857 5856 5855 5855 5854 5854 5853 5852 5851 5850 5849 5848 5846 5845 5844 5843 5842 5841 5839 5838 5836 5835 5834 5832 5830
5840 5841 5842 5843 5844 5845 5846 5846 5847 5848 5849 5850 5851 5852 5853 5854 5855 5856 5856 5857 5857 5858 5858 5859 5859 5858 5858 5858 5858 5859 5860 5860 5861 5861 5861 5860 5860 5859 5858 5857 5856 5855 5853 5851 5848 5847 5847 5849 5851 5852 5854 5855 5856 5857 5858 5859 5859 5859 5859 5859 5859 5857 5855 5855 5854 5853 5852 5852 5851 5851 5850 5849 5848 5847 5846 5844 5843 5842 5841 5840 5838 5837 5835 5834 5832 5831 5829
5835 5836 5838 5838 5840 5841 5841 5842 5843 5843 5844 5845 5846 5847 5848 5850 5851 5852 5852 5853 5853 5854 5854 5855 5855 5855 5855 5855 5856 5856 5857 5857 5858 5858 5858 5858 5858 5857 5856 5855 5855 5854 5852 5851 5850 5849 5849 5850 5851 5852 5853 5854 5855 5856 5857 5857 5858 5858 5858 5858 5857 5855 5854 5854 5853 5852 5851 5850 5850 5849 5849 5848 5847 5846 5845 5843 5842 5841 5840 5838 5837 5835 5834 5832 5831 5830 5828
5831 5832 5833 5834 5835 5836 5837 5838 5838 5839 5840 5841 5842 5842 5843 5845 5846 5848 5848 5849 5849 5850 5850 5851 5851 5852 5852 5852 5853 5853 5854 5854 5855 5856 5856 5855 5855 5854 5853 5853 5852 5852 5851 5851 5850 5850 5850 5850 5851 5851 5852 5854 5855 5855 5855 5855 5856 5857 5857 5856 5855 5854 5853 5852 5852 5851 5850 5849 5849 5849 5848 5848 5847 5845 5844 5842 5841 5840 5838 5837 5835 5834 5833 5832 5830 5829 5827
5827 5828 5829 5830 5831 5832 5833 5833 5834 5835 5835 5836 5837 5838 5838 5840 5842 5843 5844 5845 5845 5846 5846 5847 5847 5848 5849 5849 5850 5850 5850 5851 5852 5852 5852 5852 5852 5852 5851 5850 5850 5850 5849 5849 5849 5849 5849 5849 5850 5850 5852 5853 5854 5854 5853 5853 5854 5855 5855 5855 5853 5852 5852 5851 5851 5849 5848 5848 5848 5848 5847 5847 5845 5844 5843 5841 5840 5838 5837 5836 5834 5833 5832 5831 5830 5828 5827
5823 5824 5825 5825 5826 5828 5829 5829 5830 5830 5831 5831 5832 5833 5834 5835 5837 5838 5840 5841 5841 5842 5842 5843 5843 5844 5845 5846 5846 5846 5847 5848 5848 5849 5849 5849 5849 5849 5848 5848 5848 5848 5848 5847 5847 5848 5848 5847 5848 5849 5850 5852 5853 5852 5851 5852 5852 5853 5853 5853 5852 5851 5851 5850 5849 5848 5847 5847 5847 5846 5846 5845 5844 5843 5842 5840 5838 5837 5836 5835 5833 5832 5831 5830 5829 5828 5826
5818 5819 5819 5821 5822 5824 5824 5825 5825 5826 5827 5827 5828 5829 5830 5830 5832 5833 5835 5836 5837 5837 5838 5839 5839 5840 5841 5842 5843 5843 5843 5844 5845 5845 5846 5846 5846 5846 5846 5846 5846 5846 5846 5846 5846 5846 5846 5846 5846 5846 5848 5850 5850 5849 5849 5850 5851 5851 5852 5851 5850 5850 5849 5848 5847 5846 5846 5845 5845 5845 5845 5844 5843 5842 5840 5839 5837 5836 5835 5834 5832 5831 5830 5829 5828 5827 5825
5812 5813 5815 5816 5818 5819 5820 5820 5821 5822 5823 5823 5824 5824 5825 5826 5826 5828 5829 5831 5832 5833 5834 5834 5835 5836 5837 5838 5839 5839 5840 5841 5841 5841 5842 5842 5843 5843 5844 5844 5844 5844 5845 5844 5844 5845 5845 5844 5844 5844 5845 5847 5847 5847 5847 5848 5849 5850 5850 5849 5849 5848 5847 5847 5846 5845 5844 5844 5844 5844 5844 5843 5841 5840 5838 5837 5835 5834 5833 5833 5831 5830 5829 5828 5827 5826 5824
5808 5809 5810 5812 5813 5814 5815 5816 5817 5818 5819 5819 5819 5819 5820 5820 5822 5823 5825 5826 5827 5828 5829 5830 5831 5832 5833 5834 5835 5836 5836 5837 5837 5837 5837 5838 5839 5840 5840 5841 5842 5842 5842 5843 5843 5843 5843 5842 5842 5842 5843 5844 5844 5844 5845 5846 5847 5848 5848 5847 5847 5846 5846 5845 5844 5843 5843 5843 5843 5843 5842 5841 5840 5838 5837 5835 5834 5833 5833 5832 5831 5829 5828 5827 5826 5825 5824
5803 5804 5806 5807 5808 5809 5810 5811 5812 5814 5814 5814 5815 5815 5815 5816 5817 5818 5820 5821 5822 5823 5825 5826 5827 5827 5828 5829 5831 5832 5832 5832 5832 5833 5833 5834 5835 5836 5836 5838 5839 5839 5840 5840 5840 5840 5840 5839 5838 5839 5840 5841 5841 5842 5842 5844 5845 5846 5846 5846 5845 5845 5844 5843 5843 5842 5842 5842 5842 5841 5841 5840 5838 5836 5835 5834 5833 5832 5832 5831 5830 5829 5828 5827 5826 5824 5823
5799 5800 5801 5802 5803 5804 5806 5807 5808 5809 5809 5810 5810 5810 5811 5812 5813 5814 5815 5815 5816 5818 5819 5821 5822 5822 5823 5824 5826 5827 5828 5828 5828 5829 5829 5830 5831 5832 5833 5834 5835 5835 5836 5836 5836 5836 5836 5836 5835 5835 5836 5837 5838 5839 5840 5841 5842 5843 5844 5844 5844 5843 5843 5842 5841 5841 5841 5841 5840 5840 5839 5838 5836 5835 5834 5833 5832 5831 5831 5830 5829 5828 5827 5826 5825 5824 5822
5794 5795 5797 5798 5799 5800 5801 5802 5803 5804 5805 5806 5806 5806 5807 5808 5809 5809 5809 5809 5810 5812 5814 5816 5817 5818 5818 5819 5820 5822 5822 5823 5823 5824 5825 5826 5827 5828 5828 5829 5830 5831 5832 5832 5832 5832 5832 5832 5831 5831 5833 5834 5835 5836 5837 5838 5840 5841 5841 5842 5842 5842 5841 5840 5840 5839 5839 5839 5840 5839 5838 5836 5835 5833 5832 5832 5831 5830 5830 5829 5828 5827 5826 5825 5824 5823 5822
5790 5791 5792 5794 5795 5796 5797 5797 5798 5800 5801 5801 5802 5802 5803 5803 5803 5804 5804 5804 5805 5806 5808 5810 5812 5813 5813 5814 5815 5817 5817 5818 5819 5819 5821 5822 5823 5824 5824 5825 5825 5827 5828 5828 5828 5828 5828 5828 5828 5828 5830 5832 5833 5833 5834 5836 5837 5839 5839 5839 5840 5840 5839 5839 5838 5838 5838 5838 5838 5838 5836 5835 5833 5832 5831 5830 5830 5829 5829 5828 5827 5826 5825 5824 5823 5822 5821
5785 5786 5788 5789 5790 5791 5792 5793 5794 5795 5795 5796 5797 5797 5797 5797 5798 5798 5799 5799 5799 5801 5802 5804 5806 5807 5808 5809 5810 5811 5812 5813 5814 5815 5816 5817 5818 5819 5820 5820 5821 5823 5823 5822 5822 5823 5824 5824 5824 5824 5827 5829 5830 5831 5832 5833 5835 5836 5837 5837 5838 5838 5837 5837 5836 5836 5837 5837 5837 5836 5834 5833 5832 5831 5830 5829 5829 5828 5828 5827 5826 5825 5824 5823 5822 5821 5820
5781 5782 5783 5784 5785 5786 5787 5788 5789 5789 5790 5791 5791 5792 5792 5792 5793 5793 5793 5793 5794 5795 5796 5798 5800 5801 5802 5803 5804 5806 5807 5808 5809 5810 5811 5812 5813 5814 5815 5815 5817 5818 5818 5817 5818 5821 5822 5821 5820 5821 5823 5825 5827 5828 5829 5831 5833 5834 5834 5835 5835 5835 5835 5835 5835 5835 5835 5835 5835 5834 5833 5832 5831 5830 5829 5828 5828 5827 5827 5826 5826 5825 5823 5822 5821 5821 5820
5777 5778 5779 5780 5781 5782 5783 5783 5784 5784 5784 5785 5785 5786 5786 5787 5787 5788 5788 5788 5788 5789 5790 5791 5793 5795 5796 5797 5798 5800 5801 5802 5803 5804 5806 5807 5807 5808 5809 5811 5813 5814 5815 5815 5817 5819 5820 5818 5817 5818 5820 5822 5824 5825 5827 5829 5830 5831 5832 5832 5833 5833 5833 5833 5833 5834 5834 5833 5833 5832 5832 5831 5830 5829 5828 5827 5827 5826 5826 5825 5825 5824 5822 5821 5821 5820 5819
5773 5774 5775 5776 5777 5778 5778 5779 5779 5779 5780 5780 5780 5780 5781 5781 5782 5782 5782 5783 5783 5783 5784 5785 5787 5788 5790 5792 5793 5794 5795 5796 5797 5799 5800 5801 5802 5803 5805 5807 5808 5810 5812 5813 5814 5816 5817 5816 5816 5816 5818 5820 5822 5823 5825 5826 5828 5829 5829 5830 5831 5831 5831 5831 5832 5832 5832 5832 5832 5831 5830 5829 5828 5827 5827 5826 5825 5825 5825 5824 5824 5823 5821 5820 5820 5819 5819
5769 5770 5771 5772 5773 5774 5774 5774 5775 5775 5775 5775 5775 5775 5776 5776 5776 5776 5777 5777 5778 5778 5779 5780 5781 5783 5784 5786 5787 5788 5789 5791 5792 5794 5795 5796 5797 5798 5800 5801 5803 5806 5808 5809 5809 5811 5813 5814 5815 5815 5817 5818 5820 5821 5823 5824 5826 5827 5828 5828 5829 5829 5829 5830 5830 5831 5831 5831 5831 5830 5829 5828 5827 5826 5825 5825 5824 5824 5824 5823 5822 5821 5820 5820 5819 5819 5818
5766 5767 5768 5768 5769 5770 5770 5770 5770 5771 5771 5771 5770 5770 5771 5771 5771 5771 5771 5772 5773 5773 5774 5775 5776 5777 5779 5780 5782 5783 5784 5786 5787 5788 5790 5791 5792 5793 5794 5797 5799 5801 5802 5803 5804 5807 5809 5812 5813 5814 5815 5816 5818 5820 5821 5822 5824 5825 5826 5826 5827 5827 5828 5828 5829 5829 5829 5829 5829 5828 5828 5826 5825 5824 5824 5823 5823 5823 5823 5822 5821 5820 5819 5819 5818 5818 5818
5762 5763 5764 5764 5765 5765 5766 5766 5766 5766 5766 5766 5766 5766 5766 5766 5766 5766 5767 5767 5768 5768 5769 5770 5771 5772 5773 5775 5776 5777 5778 5780 5782 5783 5785 5786 5786 5787 5789 5793 5795 5797 5798 5799 5801 5802 5805 5807 5809 5811 5812 5813 5815 5817 5819 5820 5822 5823 5823 5824 5825 5826 5827 5827 5828 5828 5828 5828 5827 5827 5826 5825 5824 5823 5823 5823 5822 5822 5821 5820 5820 5819 5818 5818 5818 5817 5817
5759 5760 5760 5761 5761 5762 5762 5762 5762 5763 5763 5763 5763 5763 5763 5762 5762 5762 5762 5763 5763 5764 5764 5765 5766 5767 5768 5769 5770 5771 5773 5774 5776 5777 5779 5780 5781 5782 5784 5788 5790 5792 5793 5795 5797 5799 5802 5804 5805 5807 5808 5810 5812 5814 5816 5818 5819 5820 5821 5822 5823 5824 5825 5826 5826 5826 5826 5826 5826 5825 5824 5823 5822 5821 5821 5821 5821 5821 5820 5819 5818 5818 5818 5817 5817 5817 5817
5755 5756 5756 5757 5758 5759 5759 5759 5759 5759 5759 5759 5759 5759 5759 5758 5758 5758 5758 5759 5759 5759 5760 5760 5761 5761 5761 5762 5764 5765 5766 5767 5769 5770 5772 5773 5775 5776 5778 5782 5785 5787 5789 5791 5794 5797 5799 5801 5802 5803 5804 5806 5809 5811 5813 5815 5816 5817 5818 5819 5820 5822 5823 5824 5824 5824 5824 5824 5824 5823 5822 5821 5821 5820 5820 5820 5820 5819 5819 5818 5817 5817 5817 5817 5817 5816 5816
5752 5752 5753 5754 5755 5756 5756 5756 5756 5756 5756 5755 5755 5754 5754 5754 5754 5754 5754 5754 5754 5754 5754 5754 5755 5755 5755 5757 5758 5759 5760 5761 5762 5763 5765 5768 5770 5772 5774 5776 5779 5782 5785 5787 5790 5793 5796 5798 5799 5800 5801 5803 5806 5809 5811 5812 5813 5814 5815 5817 5818 5820 5821 5821 5822 5822 5822 5822 5821 5821 5820 5819 5819 5819 5819 5818 5818 5818 5817 5817 5816 5816 5816 5816 5816 5816 5816
5749 5750 5751 5751 5752 5752 5753 5753 5753 5753 5752 5752 5751 5751 5750 5750 5750 5750 5750 5749 5749 5749 5749 5749 5749 5749 5750 5751 5752 5753 5753 5754 5755 5757 5759 5762 5764 5767 5769 5772 5774 5776 5779 5782 5785 5789 5793 5796 5797 5797 5798 5801 5803 5805 5807 5809 5810 5812 5813 5814 5816 5817 5818 5819 5820 5820 5820 5819 5819 5819 5819 5818 5818 5818 5817 5817 5817 5816 5816 5815 5815 5815 5815 5816 5816 5816 5816
5746 5747 5748 5748 5749 5749 5750 5750 5750 5749 5749 5748 5747 5747 5747 5747 5747 5746 5745 5745 5744 5744 5743 5743 5743 5743 5744 5745 5745 5746 5746 5747 5749 5751 5753 5755 5757 5760 5764 5767 5770 5773 5776 5778 5781 5785 5790 5793 5793 5794 5796 5798 5800 5802 5804 5805 5807 5809 5810 5812 5814 5815 5816 5817 5818 5818 5818 5818 5818 5818 5817 5817 5817 5816 5816 5816 5815 5815 5815 5814 5814 5814 5814 5815 5815 5816 5816